TimeMDT,TemperatureF,Dew PointF,Humidity,Sea Level PressureIn,VisibilityMPH,Wind Direction,Wind SpeedMPH,Gust SpeedMPH,PrecipitationIn,Events,Conditions,WindDirDegrees,DateUTC
12:51 AM,57.9,19.9,23,29.99,10.0,Calm,Calm,-,N/A,,Scattered Clouds,0,2013-03-20 06:51:00
1:51 AM,57.0,19.0,23,30.00,10.0,NE,9.2,-,N/A,,Partly Cloudy,50,2013-03-20 07:51:00
2:51 AM,55.0,21.9,28,30.01,10.0,ENE,5.8,-,N/A,,Partly Cloudy,70,2013-03-20 08:51:00
3:51 AM,51.1,27.0,39,30.01,10.0,SE,4.6,-,N/A,,Partly Cloudy,130,2013-03-20 09:51:00
4:51 AM,48.9,28.9,46,30.02,10.0,East,5.8,-,N/A,,Scattered Clouds,100,2013-03-20 10:51:00
5:51 AM,46.9,28.9,50,30.05,10.0,East,5.8,-,N/A,,Scattered Clouds,80,2013-03-20 11:51:00
6:51 AM,46.0,28.0,50,30.09,10.0,ESE,5.8,-,N/A,,Mostly Cloudy,110,2013-03-20 12:51:00
7:51 AM,46.0,28.9,51,30.11,10.0,East,5.8,-,N/A,,Mostly Cloudy,80,2013-03-20 13:51:00
8:51 AM,51.1,30.0,44,30.11,10.0,ENE,6.9,-,N/A,,Overcast,70,2013-03-20 14:51:00
9:51 AM,55.0,30.9,40,30.10,10.0,ENE,10.4,-,N/A,,Overcast,70,2013-03-20 15:51:00
10:51 AM,59.0,32.0,36,30.09,10.0,East,9.2,-,N/A,,Overcast,100,2013-03-20 16:51:00
11:51 AM,61.0,30.9,32,30.07,10.0,Variable,6.9,16.1,N/A,,Overcast,0,2013-03-20 17:51:00
12:51 PM,64.0,32.0,30,30.03,10.0,East,12.7,-,N/A,,Overcast,100,2013-03-20 18:51:00
1:51 PM,66.9,28.9,24,29.96,10.0,ESE,8.1,16.1,N/A,,Overcast,120,2013-03-20 19:51:00
2:51 PM,70.0,27.0,20,29.91,10.0,SSE,8.1,-,N/A,,Overcast,150,2013-03-20 20:51:00
3:51 PM,69.1,27.0,21,29.88,10.0,ESE,8.1,-,N/A,,Overcast,120,2013-03-20 21:51:00
4:51 PM,71.1,27.0,19,29.86,10.0,South,5.8,-,N/A,,Overcast,180,2013-03-20 22:51:00
5:51 PM,70.0,27.0,20,29.84,10.0,SE,3.5,-,N/A,,Overcast,140,2013-03-20 23:51:00
6:51 PM,70.0,27.0,20,29.84,10.0,Calm,Calm,-,N/A,,Mostly Cloudy,0,2013-03-21 00:51:00
7:51 PM,66.0,27.0,23,29.84,10.0,East,3.5,-,N/A,,Mostly Cloudy,100,2013-03-21 01:51:00
8:51 PM,64.9,28.0,25,29.82,10.0,SE,4.6,-,N/A,,Mostly Cloudy,130,2013-03-21 02:51:00
9:51 PM,64.0,30.0,28,29.81,10.0,Calm,Calm,-,N/A,,Overcast,0,2013-03-21 03:51:00
10:51 PM,64.9,28.9,26,29.79,10.0,Calm,Calm,-,N/A,,Overcast,0,2013-03-21 04:51:00
11:51 PM,57.0,28.0,33,29.79,10.0,East,4.6,-,N/A,,Mostly Cloudy,100,2013-03-21 05:51:00